Weather Roundup
Issued by NWS Springfield, MO

Home | Current Version | Previous Version | Text Only | Print | Product List | Glossary On
Versions: 1 2 3 4 5 6 7 8 9 10 11 12 13 14 15 16 17 18 19 20 21 22 23 24 25 26 27 28 29 30 31 32 33 34 35 36 37 38 39 40 41 42 43 44 45 46 47 48 49 50
000
NZUS99 KSGF 161457
HRRSGF

HOURLY WEATHER
NATIONAL WEATHER SERVICE SPRINGFIELD MO
900 AM CST SAT DEC 16 2017

......SGF CWA......

CITY           SKY/WX    TMP DP  RH WIND       PRES   REMARKS
SPRINGFIELD    SUNNY     40  26  57 S10       30.02S WCI  33
JOPLIN         SUNNY     45  26  47 S18G29    30.02R
WEST PLAINS    CLOUDY    40  27  59 SW7       30.09S
ROLLA          SUNNY     39  26  59 S18       30.00R WCI  30
BRANSON        MOSUNNY   45  23  42 SW7G17    30.08R

......SURROUNDING SGF CWA......

CITY           SKY/WX    TMP DP  RH WIND       PRES   REMARKS
CHANUTE        SUNNY     40  25  55 S16       29.96S WCI  31
PARSONS        SUNNY     42  26  53 S12       29.99S
COFFEYVILLE    SUNNY     41  26  55 S16       30.00S
EMPORIA        CLOUDY    35  25  66 S9        29.88S WCI  28
HARRISON AR    CLOUDY    40  26  57 SE8       30.08S WCI  34

......KANSAS AND MISSOURI......

CITY           SKY/WX    TMP DP  RH WIND       PRES   REMARKS
KANSAS CTY INT MOSUNNY   40  25  55 SW13      29.88R WCI  32
SEDALIA        SUNNY     44  26  49 SW21G30   29.95R
ST JOSEPH      SUNNY     39  28  64 SW9       29.86R WCI  33
ST LOUIS       MOSUNNY   42  26  53 SW16      30.00R
WICHITA        CLOUDY    38  27  64 S15       29.89S WCI  29
TOPEKA         SUNNY    N/A N/A N/A S10       29.87R
OLATHE         SUNNY     37  25  61 S13       29.90R WCI  29

......TENNESSEE......

CITY           SKY/WX    TMP DP  RH WIND       PRES   REMARKS
MEMPHIS        NOT AVBL
NASHVILLE      CLOUDY    38  26  62 SW12      30.26R WCI  30

......ARKANSAS.......

CITY           SKY/WX    TMP DP  RH WIND       PRES   REMARKS
FAYETTEVILLE   SUNNY     44  26  49 SW14G23   30.09S
FT SMITH       CLOUDY    33  30  88 NE6       30.15R WCI  28
LITTLE ROCK    CLOUDY    36  31  82 SW6       30.22S WCI  31

......OKLAHOMA.......

CITY           SKY/WX    TMP DP  RH WIND       PRES   REMARKS
TULSA          MOSUNNY   44  25  47 S14       30.04S
PONCA CITY     SUNNY     42  27  55 S9        29.96S
MCALESTER      CLOUDY    42  27  55 S9        30.11S
OKLAHOMA CITY  MOSUNNY   41  24  51 S17       30.01R

......IOWA............

CITY           SKY/WX    TMP DP  RH WIND       PRES   REMARKS
DES MOINES     NOT AVBL
QUAD CITIES    SUNNY     38  26  62 SW7       29.84R WCI  33

......ILLINOIS........

CITY           SKY/WX    TMP DP  RH WIND       PRES   REMARKS
QUINCY         SUNNY     39  25  57 SW18      29.89R WCI  30
CHICAGO        MOSUNNY   36  24  62 SW6       29.87R WCI  31



USA.gov is the U.S. government's official web portal to all federal, state and local government web resources and services.